When you browse on this site, cookies collect data to enhance your experience and personalize the content and advertising you see.
Visit our Privacy Policy to learn more. By continuing to use the site, you agree to this use of cookies and data.
  • In Switzerland
  • List of Countries
  • For 7 days
  • Water Temperature
  • Weather Map
  • Weather Widgets
  • user-avatar
    Login

    Hourly Weather Bangor

    Today, 26 May, Tuesday

    Time Temperature Precipitation Wind Pressure Humidity
    00:00 +10°C° 0 mm 1 mps 758 mmHg 84%
    01:00 +10°C° 0 mm 1 mps 759 mmHg 82%
    02:00 +10°C° 0 mm 1 mps 759 mmHg 81%
    03:00 +10°C° 0 mm 1 mps 759 mmHg 79%
    04:00 +11°C° 0 mm 1 mps 759 mmHg 79%
    05:00 +12°C° 0 mm 1 mps 759 mmHg 79%
    06:00 +12°C° 0 mm 1 mps 759 mmHg 79%
    07:00 +14°C° 0 mm 1 mps 759 mmHg 76%
    08:00 +15°C° 0 mm 1 mps 759 mmHg 72%
    09:00 +16°C° 0 mm 1 mps 760 mmHg 69%
    10:00 +17°C° 0 mm 2 mps 760 mmHg 70%
    11:00 +18°C° 0 mm 2 mps 760 mmHg 70%
    12:00 +19°C° 0 mm 2 mps 760 mmHg 70%
    13:00 +19°C° 0 mm 2 mps 760 mmHg 71%
    14:00 +19°C° 0 mm 2 mps 759 mmHg 72%
    15:00 +20°C° 0 mm 2 mps 759 mmHg 73%
    16:00 +19°C° 0.1 mm 2 mps 759 mmHg 76%
    17:00 +19°C° 0.1 mm 2 mps 759 mmHg 80%
    18:00 +18°C° 0.1 mm 2 mps 759 mmHg 83%
    19:00 +17°C° 0 mm 2 mps 759 mmHg 86%
    20:00 +16°C° 0 mm 2 mps 759 mmHg 90%
    21:00 +14°C° 0 mm 2 mps 760 mmHg 93%
    22:00 +14°C° 0 mm 2 mps 760 mmHg 92%
    23:00 +13°C° 0 mm 2 mps 760 mmHg 92%

    Tomorrow, 27 May, Wednesday

    Time Temperature Precipitation Wind Pressure Humidity
    00:00 +13°C° 0 mm 2 mps 760 mmHg 91%
    01:00 +12°C° 0 mm 2 mps 759 mmHg 91%
    02:00 +12°C° 0 mm 2 mps 759 mmHg 90%
    03:00 +10°C° 0 mm 2 mps 759 mmHg 89%
    04:00 +10°C° 0 mm 2 mps 759 mmHg 87%
    05:00 +12°C° 0 mm 2 mps 759 mmHg 85%
    06:00 +12°C° 0 mm 2 mps 759 mmHg 83%
    07:00 +13°C° 0 mm 2 mps 760 mmHg 77%
    08:00 +15°C° 0 mm 2 mps 760 mmHg 70%
    09:00 +16°C° 0 mm 3 mps 760 mmHg 64%
    10:00 +17°C° 0 mm 3 mps 760 mmHg 62%
    11:00 +18°C° 0 mm 3 mps 760 mmHg 59%
    12:00 +19°C° 0 mm 3 mps 760 mmHg 57%
    13:00 +19°C° 0 mm 3 mps 760 mmHg 57%
    14:00 +19°C° 0 mm 3 mps 760 mmHg 57%
    15:00 +20°C° 0 mm 3 mps 759 mmHg 57%
    16:00 +19°C° 0 mm 3 mps 759 mmHg 61%
    17:00 +19°C° 0 mm 2 mps 759 mmHg 66%
    18:00 +19°C° 0 mm 2 mps 759 mmHg 70%
    19:00 +17°C° 0 mm 2 mps 759 mmHg 74%
    20:00 +15°C° 0 mm 2 mps 759 mmHg 79%
    21:00 +14°C° 0 mm 2 mps 759 mmHg 83%
    22:00 +13°C° 0 mm 2 mps 759 mmHg 86%
    23:00 +12°C° 0 mm 2 mps 759 mmHg 90%

    Day after tomorrow, 28 May, Thursday

    Time Temperature Precipitation Wind Pressure Humidity
    00:00 +12°C° 0 mm 2 mps 759 mmHg 93%
    01:00 +12°C° 0 mm 2 mps 759 mmHg 93%
    02:00 +11°C° 0 mm 1 mps 759 mmHg 94%
    03:00 +11°C° 0 mm 1 mps 758 mmHg 95%
    04:00 +12°C° 0 mm 1 mps 758 mmHg 93%
    05:00 +12°C° 0 mm 1 mps 758 mmHg 92%
    06:00 +13°C° 0 mm 1 mps 758 mmHg 90%
    07:00 +14°C° 0 mm 2 mps 758 mmHg 83%
    08:00 +15°C° 0 mm 2 mps 758 mmHg 77%
    09:00 +17°C° 0 mm 3 mps 758 mmHg 70%
    10:00 +17°C° 0 mm 3 mps 757 mmHg 67%
    11:00 +18°C° 0 mm 3 mps 757 mmHg 64%
    12:00 +19°C° 0 mm 4 mps 757 mmHg 60%
    13:00 +19°C° 0 mm 4 mps 756 mmHg 60%
    14:00 +20°C° 0 mm 4 mps 756 mmHg 61%
    15:00 +20°C° 0 mm 4 mps 756 mmHg 61%
    16:00 +20°C° 0 mm 3 mps 755 mmHg 64%
    17:00 +19°C° 0 mm 3 mps 755 mmHg 68%
    18:00 +19°C° 0 mm 3 mps 755 mmHg 71%
    19:00 +17°C° 0 mm 3 mps 755 mmHg 76%
    20:00 +14°C° 0 mm 3 mps 755 mmHg 80%
    21:00 +14°C° 0 mm 2 mps 755 mmHg 85%
    22:00 +13°C° 0 mm 2 mps 754 mmHg 85%
    23:00 +12°C° 0 mm 2 mps 754 mmHg 85%

    29 May, Friday

    Time Temperature Precipitation Wind Pressure Humidity
    00:00 +11°C° 0 mm 1 mps 754 mmHg 85%
    01:00 +10°C° 0 mm 1 mps 754 mmHg 80%
    02:00 +10°C° 0 mm 1 mps 754 mmHg 76%
    03:00 +8°C° 0 mm 2 mps 754 mmHg 71%
    04:00 +9°C° 0 mm 2 mps 754 mmHg 70%
    05:00 +10°C° 0 mm 2 mps 753 mmHg 69%
    06:00 +10°C° 0 mm 2 mps 753 mmHg 68%
    07:00 +13°C° 0 mm 2 mps 753 mmHg 66%
    08:00 +14°C° 0 mm 3 mps 753 mmHg 64%
    09:00 +16°C° 0 mm 3 mps 753 mmHg 61%
    10:00 +17°C° 0 mm 3 mps 753 mmHg 62%
    11:00 +18°C° 0 mm 4 mps 753 mmHg 63%
    12:00 +19°C° 0 mm 4 mps 753 mmHg 64%
    13:00 +20°C° 0 mm 4 mps 752 mmHg 64%
    14:00 +20°C° 0 mm 4 mps 752 mmHg 64%
    15:00 +20°C° 0 mm 3 mps 752 mmHg 64%
    16:00 +20°C° 0 mm 3 mps 751 mmHg 67%
    17:00 +19°C° 0 mm 3 mps 751 mmHg 71%
    18:00 +19°C° 0 mm 3 mps 751 mmHg 74%
    19:00 +17°C° 0 mm 3 mps 751 mmHg 79%
    20:00 +15°C° 0 mm 2 mps 751 mmHg 83%
    21:00 +14°C° 0 mm 2 mps 751 mmHg 88%
    22:00 +13°C° 0 mm 2 mps 751 mmHg 88%
    23:00 +12°C° 0 mm 1 mps 751 mmHg 88%

    30 May, Saturday

    Time Temperature Precipitation Wind Pressure Humidity
    00:00 +11°C° 0 mm 1 mps 751 mmHg 87%
    01:00 +10°C° 0 mm 1 mps 751 mmHg 87%
    02:00 +10°C° 0 mm 1 mps 751 mmHg 87%
    03:00 +9°C° 0 mm 1 mps 751 mmHg 86%
    04:00 +9°C° 0 mm 2 mps 751 mmHg 84%
    05:00 +9°C° 0 mm 2 mps 751 mmHg 81%
    06:00 +10°C° 0 mm 2 mps 751 mmHg 79%
    07:00 +12°C° 0 mm 2 mps 751 mmHg 76%
    08:00 +13°C° 0 mm 2 mps 751 mmHg 72%
    09:00 +14°C° 0 mm 3 mps 751 mmHg 69%
    10:00 +16°C° 0 mm 3 mps 751 mmHg 67%
    11:00 +17°C° 0 mm 3 mps 751 mmHg 66%
    12:00 +18°C° 0 mm 3 mps 751 mmHg 64%
    13:00 +19°C° 0 mm 3 mps 751 mmHg 64%
    14:00 +19°C° 0 mm 3 mps 750 mmHg 64%
    15:00 +20°C° 0 mm 3 mps 750 mmHg 63%
    16:00 +19°C° 0 mm 3 mps 750 mmHg 67%
    17:00 +19°C° 0 mm 3 mps 750 mmHg 71%
    18:00 +18°C° 0 mm 3 mps 750 mmHg 75%
    19:00 +17°C° 0 mm 3 mps 750 mmHg 77%
    20:00 +16°C° 0 mm 3 mps 750 mmHg 80%
    21:00 +13°C° 0 mm 3 mps 750 mmHg 82%
    22:00 +12°C° 0 mm 3 mps 750 mmHg 84%
    23:00 +12°C° 0 mm 2 mps 750 mmHg 87%

    31 May, Sunday

    Time Temperature Precipitation Wind Pressure Humidity
    00:00 +9°C° 0 mm 2 mps 749 mmHg 89%
    01:00 +9°C° 0 mm 2 mps 749 mmHg 90%
    02:00 +9°C° 0 mm 2 mps 749 mmHg 90%
    03:00 +8°C° 0 mm 2 mps 749 mmHg 91%
    04:00 +9°C° 0 mm 2 mps 749 mmHg 89%
    05:00 +9°C° 0 mm 2 mps 749 mmHg 88%
    06:00 +10°C° 0 mm 2 mps 749 mmHg 87%
    07:00 +12°C° 0 mm 3 mps 749 mmHg 82%
    08:00 +13°C° 0 mm 3 mps 749 mmHg 77%
    09:00 +16°C° 0 mm 3 mps 749 mmHg 72%
    10:00 +17°C° 0 mm 3 mps 749 mmHg 69%
    11:00 +18°C° 0 mm 4 mps 749 mmHg 66%
    12:00 +20°C° 0 mm 4 mps 748 mmHg 63%
    13:00 +20°C° 0 mm 4 mps 748 mmHg 62%
    14:00 +20°C° 0 mm 4 mps 748 mmHg 61%
    15:00 +20°C° 0 mm 3 mps 748 mmHg 61%
    16:00 +20°C° 0 mm 3 mps 748 mmHg 65%
    17:00 +19°C° 0 mm 3 mps 747 mmHg 69%
    18:00 +19°C° 0 mm 2 mps 747 mmHg 73%
    19:00 +17°C° 0 mm 2 mps 747 mmHg 77%
    20:00 +16°C° 0 mm 2 mps 747 mmHg 81%
    21:00 +14°C° 0 mm 2 mps 747 mmHg 85%
    22:00 +13°C° 0 mm 1 mps 747 mmHg 85%
    23:00 +13°C° 0 mm 1 mps 747 mmHg 86%
    Show more